Location: Unspecified
(40.7945°N, 111.1337°W)
Time: 15:28:14
(UTC-06:00)

Altair - All Passes

Search period start: 17 June 2019 00:00
Search period end: 27 June 2019 00:00
Orbit: 1501 x 1683 km, 47.2° (Epoch: 16 June)

Date Brightness Start Highest point End Pass type
(mag) Time Alt. Az. Time Alt. Az. Time Alt. Az.
17 Jun - 00:56:07 10° W 01:05:50 61° N 01:15:52 10° ENE visible
17 Jun - 03:01:44 10° WNW 03:11:47 73° NNE 03:21:58 10° ESE visible
17 Jun - 05:06:51 10° WNW 05:16:37 56° SW 05:26:24 10° SE visible
17 Jun - 07:14:33 10° W 07:19:50 16° WSW 07:25:07 10° SSW daylight
17 Jun - 20:23:28 10° S 20:31:17 30° SE 20:39:21 10° ENE daylight
17 Jun - 22:25:31 10° SW 22:35:06 83° SSE 22:45:06 10° ENE visible
18 Jun - 00:30:51 10° W 00:40:32 62° N 00:50:33 10° ENE visible
18 Jun - 02:36:32 10° WNW 02:46:31 71° NNE 02:56:41 10° ESE visible
18 Jun - 04:41:37 10° WNW 04:51:28 60° SW 05:01:20 10° SE visible
18 Jun - 06:48:46 10° W 06:54:47 18° WSW 07:00:49 10° SSW daylight
18 Jun - 19:58:45 10° S 20:06:14 27° SE 20:13:56 10° ENE daylight
18 Jun - 22:00:23 10° SW 22:09:55 79° SSE 22:19:52 10° ENE visible
19 Jun - 00:05:36 10° W 00:15:15 63° N 00:25:16 10° ENE visible
19 Jun - 02:11:19 10° WNW 02:21:15 69° NNE 02:31:23 10° E visible
19 Jun - 04:16:24 10° WNW 04:26:17 64° SW 04:36:16 10° SE visible
19 Jun - 06:23:07 10° W 06:29:44 20° SW 06:36:23 10° SSW daylight
19 Jun - 19:34:06 10° S 19:41:12 25° SE 19:48:29 10° ENE daylight
19 Jun - 21:35:17 10° SW 21:44:45 75° SE 21:54:37 10° ENE visible
19 Jun - 23:40:20 10° W 23:49:58 64° N 23:59:58 10° ENE visible
20 Jun - 01:46:05 10° WNW 01:55:58 67° NNE 02:06:05 10° E visible
20 Jun - 03:51:10 10° WNW 04:01:07 69° SW 04:11:10 10° SE visible
20 Jun - 05:57:33 10° W 06:04:41 22° SW 06:11:50 10° S daylight
20 Jun - 19:09:29 10° S 19:16:10 22° SE 19:22:59 10° E daylight
20 Jun - 21:10:13 10° SW 21:19:35 71° SE 21:29:22 10° ENE daylight
20 Jun - 23:15:06 10° W 23:24:42 65° NNW 23:34:41 10° ENE visible
21 Jun - 01:20:52 10° WNW 01:30:41 65° NNE 01:40:46 10° E visible
21 Jun - 03:25:58 10° WNW 03:35:56 73° SW 03:46:02 10° SE visible
21 Jun - 05:32:03 10° WNW 05:39:37 25° SW 05:47:12 10° S daylight
21 Jun - 18:44:58 10° SSE 18:51:08 20° SE 18:57:26 10° E daylight
21 Jun - 20:45:09 10° SW 20:54:26 66° SE 21:04:08 10° ENE daylight
21 Jun - 22:49:51 10° W 22:59:26 67° NNW 23:09:24 10° ENE visible
22 Jun - 00:55:38 10° WNW 01:05:24 64° N 01:15:27 10° E visible
22 Jun - 03:00:45 10° WNW 03:10:44 77° SSW 03:20:53 10° SE visible
22 Jun - 05:06:37 10° WNW 05:14:33 27° SW 05:22:30 10° S visible
22 Jun - 18:20:34 10° SSE 18:26:08 17° SE 18:31:47 10° E daylight
22 Jun - 20:20:07 10° SW 20:29:18 62° SE 20:38:53 10° ENE daylight
22 Jun - 22:24:37 10° W 22:34:10 69° NNW 22:44:08 10° ENE visible
23 Jun - 00:30:24 10° WNW 00:40:07 62° N 00:50:08 10° E visible
23 Jun - 02:35:33 10° WNW 02:45:32 81° SSW 02:55:43 10° SE visible
23 Jun - 04:41:13 10° WNW 04:49:27 30° SW 04:57:45 10° S visible
23 Jun - 17:56:17 10° SSE 18:01:07 15° ESE 18:06:01 10° E daylight
23 Jun - 19:55:07 10° SW 20:04:11 58° SE 20:13:37 10° ENE daylight
23 Jun - 21:59:24 10° WSW 22:08:55 71° NNW 22:18:52 10° ENE visible
24 Jun - 00:05:10 10° WNW 00:14:50 61° N 00:24:49 10° E visible
24 Jun - 02:10:21 10° WNW 02:20:20 85° SSW 02:30:31 10° ESE visible
24 Jun - 04:15:52 10° WNW 04:24:22 33° SW 04:32:58 10° S visible
24 Jun - 17:32:13 10° SSE 17:36:07 13° ESE 17:40:03 10° E daylight
24 Jun - 19:30:07 10° SSW 19:39:04 53° SE 19:48:23 10° ENE daylight
24 Jun - 21:34:11 10° WSW 21:43:41 73° NNW 21:53:36 10° ENE visible
24 Jun - 23:39:56 10° WNW 23:49:32 61° N 23:59:29 10° E visible
25 Jun - 01:45:10 10° WNW 01:55:07 89° SSW 02:05:18 10° ESE visible
25 Jun - 03:50:32 10° WNW 03:59:15 36° SW 04:08:06 10° SSE visible
25 Jun - 17:08:38 10° SE 17:11:08 11° ESE 17:13:38 10° ESE daylight
25 Jun - 19:05:10 10° SSW 19:13:58 49° SE 19:23:07 10° ENE daylight
25 Jun - 21:08:58 10° WSW 21:18:27 76° NNW 21:28:22 10° ENE daylight
25 Jun - 23:14:42 10° WNW 23:24:15 60° N 23:34:10 10° E visible
26 Jun - 01:19:58 10° WNW 01:29:54 87° NNE 01:40:04 10° ESE visible
26 Jun - 03:25:13 10° WNW 03:34:09 39° SW 03:43:13 10° SSE visible
26 Jun - 18:40:14 10° SSW 18:48:53 45° SE 18:57:50 10° ENE daylight
26 Jun - 20:43:48 10° WSW 20:53:13 79° NNW 21:03:07 10° ENE daylight
26 Jun - 22:49:28 10° WNW 22:58:58 60° N 23:08:50 10° E visible
